Find Starlink 37083

NORAD ID: 68227 Int'l Des: 2026-053 Owner: SPXS Country: US Constellation: starlink operational
LEOCIRCULARRETROGRADE

現在のビュー

3D地球を読み込み中...

About Starlink 37083

Starlink 37083 (NORAD 68227) is a starlink constellation satellite (v2 mini) launched Mar 17, 2026 by SPXS of US. It operates in LEO, CIRCULAR, RETROGRADE orbit with a mass of 575.00 kg.

Starlink 37083について

説明を読み込み中...

次回通過

Passes for default location (London). Set your location on the main map for personalized predictions.

高度履歴

Loading altitude history...

軌道要素

1 68227U 26053W 26167.16717022 .00012284 00000-0 38219-3 0 9992
2 68227 97.2853 42.3605 0001562 93.2824 266.8597 15.33447030 15282
Epoch: Jun 16, 2026 • Age: 7 hours

現在のステータス

高度 490.7 km
速度 7.62 km/s
衛星直下点 -63.13°S, 133.33°E
打ち上げ日 Mar 17, 2026
運用期間 0.2 years
タイプ internet

技術仕様

分類 Payload
質量 575.00 kg
乾燥質量 530.00 kg
総質量 575.00 kg
長さ 0.30 m
直径 4.10 m
スパン 29.00 m
形状 Box + pan
製造者 SPXS
バスタイプ Starlink V2MO
フェーズステータス In Orbit
所有者/国 SPXS/US

Most Searched